Regional Weather Roundup
Issued by NWS Glasgow, MT

Current Version | Previous Version | Text Only | Print | Product List | Glossary On
Versions: 1 2 3 4 5 6 7 8 9 10 11 12 13 14 15 16 17 18 19 20 21 22 23 24 25 26 27
000
ASUS45 KGGW 260015
RWRGGW
HOURLY REGIONAL WEATHER ROUNDUP FOR NORTHEAST MONTANA
NATIONAL WEATHER SERVICE GLASGOW MONTANA
600 PM MDT SUN SEP 25 2016

NOTE: "FAIR" INDICATES FEW OR NO CLOUDS BELOW 12,000 FEET WITH NO
SIGNIFICANT WEATHER AND/OR OBSTRUCTIONS TO VISISBILITY.

NORTHEAST MONTANA


CITY           SKY/WX    TMP DP  RH WIND       PRES   REMARKS
GLASGOW        CLEAR     65  37  35 W16G28    30.22S
6HR MIN TEMP:  61; 6HR MAX TEMP:  67;

PLENTYWOOD       N/A     60  27  28 NW20G35     N/A
WOLF POINT     PTCLDY    66  38  35 W10       30.21F
JORDAN           N/A     65  35  33 W13       30.25F
WINNETT          N/A     67  33  28 W10         N/A
SIDNEY         PTCLDY    64  36  35 NW12      30.20S
GLENDIVE       PTCLDY    61  40  45 NW10      30.24S
MALTA            N/A     67  37  33 NW10G22     N/A
SCOBEY           N/A     62  31  31 NW8       30.18S
OPHEIM           N/A     59  32  36 W8        30.09R

FORT PECK REPORTS


CITY           SKY/WX    TMP DP  RH WIND       PRES   REMARKS
FORT PECK        N/A     66  40  38 W15         N/A
THE PINES        N/A     66  35  31 NW3G14      N/A

SOUTHEAST MONTANA


CITY           SKY/WX    TMP DP  RH WIND       PRES   REMARKS
BILLINGS       MOSUNNY   66  40  38 W7        30.30S
MILES CITY     MOCLDY    65  40  39 W10       30.27S
BAKER          MOCLDY    60  39  45 W17G25    30.26S
LIVINGSTON     SUNNY     66  35  31 W22G32    30.34S

CENTRAL MONTANA


CITY           SKY/WX    TMP DP  RH WIND       PRES   REMARKS
HAVRE          SUNNY     67  37  33 W8        30.21F
LEWISTOWN      SUNNY     60  38  43 N5        30.30F
GREAT FALLS    SUNNY     68  38  33 W15       30.27R
CUT BANK       SUNNY     62  39  42 W23G31    30.28R
HELENA         SUNNY     68  38  33 W13G23    30.36S
BUTTE          MOSUNNY   63  37  38 NW15G25   30.44R
BOZEMAN        SUNNY     67  37  33 CALM      30.38S

WESTERN MONTANA


CITY           SKY/WX    TMP DP  RH WIND       PRES   REMARKS
MISSOULA       CLOUDY    68  41  37 CALM      30.41S
KALISPELL      NOT AVBL

NORTH DAKOTA


CITY           SKY/WX    TMP DP  RH WIND       PRES   REMARKS
WILLISTON      CLEAR     62  31  31 NW17      30.18S
DICKINSON      CLEAR     58  33  39 NW18G26   30.19R
MINOT          CLEAR     60  34  37 W28G38    30.08R
BISMARCK       CLEAR     62  32  32 NW16G32   30.13R

SOUTHERN SASKATCHEWAN


CITY           SKY/WX    TMP DP  RH WIND       PRES   REMARKS
REGINA         PTCLDY    57  34  41 NW15G22   30.15R
ESTEVAN        PTCLDY    57  32  38 NW20G30   30.13R
SWIFT CURRENT  CLEAR     59  32  36 N8        30.19S





USA.gov is the U.S. government's official web portal to all federal, state and local government web resources and services.